SUR4199 SAWC-SAWH

Flight info

Callsign SUR4199
Flight time 0h 57m
Altitude 31000
Route DEVIS1C DEVIS UW52 GAL UW42 GRA DCT DABLI DABLI2
Aircraft B738/M-SDE2E3FGHIRWXY/LB1

Departure

Time 2026-04-21 20:38
Airport El Calafate - Commander Armando Tola International Airport (SAWC)

Arrival

Time 2026-04-21 21:36
Airport Ushuaia - Malvinas Argentinas International Airport (SAWH)
Time Latitude Longitude Altitude Speed Heading
2026-04-21 20:06 -50.28339 -72.05385 640 ft 0 kts 175°
2026-04-21 20:28 -50.28319 -72.05388 640 ft 4 kts 175°
2026-04-21 20:28 -50.28292 -72.05392 641 ft 4 kts 175°
2026-04-21 20:28 -50.28273 -72.05394 642 ft 1 kts 175°
2026-04-21 20:28 -50.28270 -72.05395 642 ft 0 kts 175°
2026-04-21 20:32 -50.28278 -72.05388 641 ft 3 kts 140°
2026-04-21 20:32 -50.28268 -72.05364 643 ft 3 kts 11°
2026-04-21 20:32 -50.28245 -72.05384 640 ft 5 kts 330°
2026-04-21 20:32 -50.28212 -72.05401 640 ft 5 kts 351°
2026-04-21 20:33 -50.28177 -72.05408 640 ft 5 kts 353°
2026-04-21 20:33 -50.28138 -72.05414 640 ft 6 kts 354°
2026-04-21 20:33 -50.28096 -72.05418 641 ft 6 kts 357°
2026-04-21 20:33 -50.28053 -72.05413 642 ft 7 kts 20°
2026-04-21 20:34 -50.28018 -72.05318 642 ft 13 kts 81°
2026-04-21 20:34 -50.28008 -72.05165 642 ft 14 kts 85°
2026-04-21 20:34 -50.28001 -72.05014 643 ft 14 kts 85°
2026-04-21 20:34 -50.27993 -72.04869 644 ft 13 kts 85°
2026-04-21 20:35 -50.27983 -72.04716 643 ft 15 kts 84°
2026-04-21 20:35 -50.27972 -72.04542 642 ft 17 kts 84°
2026-04-21 20:35 -50.27961 -72.04349 641 ft 19 kts 85°
2026-04-21 20:35 -50.27949 -72.04137 640 ft 20 kts 85°
2026-04-21 20:36 -50.27938 -72.03926 639 ft 19 kts 85°
2026-04-21 20:36 -50.27936 -72.03747 640 ft 14 kts 108°
2026-04-21 20:36 -50.27963 -72.03614 640 ft 12 kts 92°
2026-04-21 20:36 -50.27934 -72.03562 641 ft 6 kts
2026-04-21 20:37 -50.27917 -72.03611 641 ft 6 kts 262°
2026-04-21 20:37 -50.27917 -72.03618 641 ft 0 kts 264°
2026-04-21 20:37 -50.27922 -72.03681 640 ft 28 kts 264°
2026-04-21 20:38 -50.27966 -72.04383 642 ft 99 kts 265°
2026-04-21 20:38 -50.28051 -72.05757 662 ft 154 kts 263°
2026-04-21 20:38 -50.28135 -72.07535 1269 ft 163 kts 268°
2026-04-21 20:38 -50.28148 -72.09352 1932 ft 178 kts 277°
2026-04-21 20:39 -50.28192 -72.11358 2608 ft 192 kts 272°
2026-04-21 20:39 -50.28282 -72.13597 2856 ft 222 kts 271°
2026-04-21 20:39 -50.28462 -72.16099 3352 ft 238 kts 266°
2026-04-21 20:39 -50.28715 -72.18762 3979 ft 251 kts 268°
2026-04-21 20:40 -50.28928 -72.21490 4910 ft 251 kts 269°
2026-04-21 20:40 -50.29109 -72.24176 5996 ft 248 kts 268°
2026-04-21 20:40 -50.29277 -72.26901 6801 ft 253 kts 269°
2026-04-21 20:40 -50.29443 -72.29610 7707 ft 253 kts 270°
2026-04-21 20:41 -50.29606 -72.32376 8694 ft 252 kts 271°
2026-04-21 20:41 -50.29761 -72.35073 9588 ft 253 kts 272°
2026-04-21 20:41 -50.29935 -72.37821 10394 ft 257 kts 268°
2026-04-21 20:41 -50.30653 -72.40493 11135 ft 281 kts 244°
2026-04-21 20:42 -50.32076 -72.42730 11905 ft 304 kts 225°
2026-04-21 20:42 -50.33917 -72.44488 12663 ft 314 kts 221°
2026-04-21 20:42 -50.35863 -72.46153 13351 ft 327 kts 212°
2026-04-21 20:42 -50.38199 -72.46809 14001 ft 356 kts 183°
2026-04-21 20:43 -50.40633 -72.45766 14649 ft 375 kts 154°
2026-04-21 20:43 -50.42712 -72.43147 14849 ft 396 kts 125°
2026-04-21 20:43 -50.43996 -72.39307 15100 ft 403 kts 102°
2026-04-21 20:43 -50.44739 -72.35034 15624 ft 410 kts 97°
2026-04-21 20:44 -50.45436 -72.30656 16312 ft 415 kts 98°
2026-04-21 20:44 -50.46197 -72.26267 17052 ft 417 kts 99°
2026-04-21 20:44 -50.47036 -72.21885 17728 ft 423 kts 101°
2026-04-21 20:44 -50.47935 -72.17508 18287 ft 429 kts 102°
2026-04-21 20:45 -50.48889 -72.13043 18911 ft 432 kts 103°
2026-04-21 20:45 -50.49861 -72.08556 19443 ft 435 kts 103°
2026-04-21 20:45 -50.50841 -72.04031 19984 ft 439 kts 103°
2026-04-21 20:45 -50.51827 -71.99450 20561 ft 442 kts 103°
2026-04-21 20:46 -50.52809 -71.94862 21150 ft 445 kts 103°
2026-04-21 20:46 -50.53798 -71.90221 21723 ft 448 kts 103°
2026-04-21 20:46 -50.54790 -71.85552 22272 ft 452 kts 102°
2026-04-21 20:46 -50.55776 -71.80903 22788 ft 455 kts 102°
2026-04-21 20:47 -50.57002 -71.76270 23240 ft 468 kts 117°
2026-04-21 20:47 -50.59041 -71.72205 23636 ft 476 kts 130°
2026-04-21 20:47 -50.61307 -71.68288 24066 ft 479 kts 130°
2026-04-21 20:47 -50.63534 -71.64448 24458 ft 483 kts 130°
2026-04-21 20:48 -50.65798 -71.60507 24782 ft 489 kts 130°
2026-04-21 20:48 -50.68082 -71.56482 25092 ft 494 kts 130°
2026-04-21 20:48 -50.70364 -71.52420 25484 ft 497 kts 129°
2026-04-21 20:48 -50.72662 -71.48303 25816 ft 501 kts 129°
2026-04-21 20:49 -50.74971 -71.44149 26138 ft 506 kts 129°
2026-04-21 20:49 -50.77304 -71.39942 26466 ft 511 kts 129°
2026-04-21 20:49 -50.79652 -71.35702 26809 ft 515 kts 129°
2026-04-21 20:49 -50.82024 -71.31416 27102 ft 520 kts 129°
2026-04-21 20:50 -50.84416 -71.27088 27411 ft 524 kts 129°
2026-04-21 20:50 -50.86825 -71.22723 27689 ft 529 kts 129°
2026-04-21 20:50 -50.89266 -71.18292 27948 ft 534 kts 129°
2026-04-21 20:50 -50.91711 -71.13848 28236 ft 538 kts 129°
2026-04-21 20:51 -50.94169 -71.09371 28605 ft 540 kts 130°
2026-04-21 20:51 -50.96640 -71.04865 29026 ft 541 kts 130°
2026-04-21 20:51 -50.98270 -71.01888 29321 ft 541 kts 130°
2026-04-21 20:51 -51.01235 -70.95479 29793 ft 535 kts 111°
2026-04-21 20:52 -51.02176 -70.91908 30048 ft 525 kts 99°
2026-04-21 20:52 -51.02891 -70.86317 30439 ft 510 kts 88°
2026-04-21 20:52 -51.03628 -70.75073 30379 ft 510 kts 86°
2026-04-21 20:53 -51.04402 -70.64038 30434 ft 499 kts 87°
2026-04-21 20:53 -51.05299 -70.53024 30457 ft 511 kts 94°
2026-04-21 20:54 -51.06505 -70.47608 30468 ft 528 kts 114°
2026-04-21 20:54 -51.08566 -70.42751 30488 ft 531 kts 124°
2026-04-21 20:54 -51.13138 -70.33588 30482 ft 527 kts 126°
2026-04-21 20:55 -51.17714 -70.24455 30476 ft 526 kts 125°
2026-04-21 20:55 -51.22204 -70.15230 30474 ft 526 kts 124°
2026-04-21 20:56 -51.26621 -70.06010 30443 ft 526 kts 124°
2026-04-21 20:56 -51.31050 -69.96729 30494 ft 526 kts 124°
2026-04-21 20:57 -51.35493 -69.87399 30501 ft 527 kts 124°
2026-04-21 20:57 -51.39937 -69.78042 30501 ft 528 kts 124°
2026-04-21 20:58 -51.44376 -69.68662 30498 ft 528 kts 124°
2026-04-21 20:58 -51.48814 -69.59248 30530 ft 529 kts 124°
2026-04-21 20:59 -51.53250 -69.49802 30518 ft 529 kts 124°
2026-04-21 20:59 -51.57689 -69.40364 30515 ft 529 kts 127°
2026-04-21 21:00 -51.60202 -69.36041 30467 ft 530 kts 138°
2026-04-21 21:00 -51.63040 -69.32360 30480 ft 529 kts 147°
2026-04-21 21:00 -51.66195 -69.29231 30471 ft 525 kts 158°
2026-04-21 21:00 -51.69470 -69.26851 30483 ft 522 kts 161°
2026-04-21 21:01 -51.76221 -69.22303 30482 ft 522 kts 162°
2026-04-21 21:01 -51.82885 -69.17783 30496 ft 523 kts 161°
2026-04-21 21:02 -51.89573 -69.13128 30512 ft 524 kts 161°
2026-04-21 21:02 -51.96266 -69.08409 30518 ft 524 kts 161°
2026-04-21 21:03 -52.02949 -69.03679 30514 ft 524 kts 161°
2026-04-21 21:03 -52.09643 -68.98933 30504 ft 524 kts 161°
2026-04-21 21:04 -52.16289 -68.94209 30502 ft 523 kts 161°
2026-04-21 21:04 -52.22954 -68.89456 30498 ft 523 kts 161°
2026-04-21 21:05 -52.29609 -68.84695 30490 ft 522 kts 161°
2026-04-21 21:05 -52.36251 -68.79927 30502 ft 520 kts 161°
2026-04-21 21:06 -52.42873 -68.75157 30494 ft 519 kts 161°
2026-04-21 21:06 -52.49493 -68.70374 30494 ft 519 kts 161°
2026-04-21 21:07 -52.56088 -68.65593 30521 ft 518 kts 161°
2026-04-21 21:07 -52.62681 -68.60797 30496 ft 518 kts 161°
2026-04-21 21:08 -52.69282 -68.55980 30489 ft 518 kts 161°
2026-04-21 21:08 -52.75814 -68.51192 30494 ft 517 kts 160°
2026-04-21 21:09 -52.82414 -68.46345 30498 ft 518 kts 161°
2026-04-21 21:09 -52.88990 -68.41502 30489 ft 517 kts 161°
2026-04-21 21:10 -52.95573 -68.36631 30490 ft 517 kts 161°
2026-04-21 21:10 -53.02140 -68.31754 30513 ft 517 kts 161°
2026-04-21 21:11 -53.08702 -68.26864 30487 ft 516 kts 161°
2026-04-21 21:11 -53.15253 -68.21968 30482 ft 515 kts 161°
2026-04-21 21:12 -53.21790 -68.17066 30481 ft 515 kts 161°
2026-04-21 21:12 -53.28286 -68.12178 30217 ft 515 kts 161°
2026-04-21 21:13 -53.31533 -68.09726 29834 ft 509 kts 161°
2026-04-21 21:13 -53.34746 -68.07295 29409 ft 505 kts 161°
2026-04-21 21:13 -53.37928 -68.04883 28947 ft 500 kts 160°
2026-04-21 21:13 -53.41071 -68.02498 28586 ft 493 kts 161°
2026-04-21 21:14 -53.44170 -68.00143 28170 ft 487 kts 161°
2026-04-21 21:14 -53.47254 -67.97798 27737 ft 484 kts 161°
2026-04-21 21:14 -53.50302 -67.95477 27291 ft 479 kts 161°
2026-04-21 21:14 -53.53336 -67.93164 26876 ft 475 kts 161°
2026-04-21 21:15 -53.56336 -67.90872 26463 ft 470 kts 161°
2026-04-21 21:15 -53.59301 -67.88603 26064 ft 466 kts 160°
2026-04-21 21:15 -53.62244 -67.86347 25665 ft 462 kts 160°
2026-04-21 21:15 -53.65160 -67.84110 25269 ft 458 kts 160°
2026-04-21 21:16 -53.68049 -67.81889 24880 ft 455 kts 160°
2026-04-21 21:16 -53.70915 -67.79684 24511 ft 451 kts 160°
2026-04-21 21:16 -53.73763 -67.77487 24107 ft 448 kts 160°
2026-04-21 21:16 -53.76631 -67.75515 23691 ft 440 kts 169°
2026-04-21 21:17 -53.79566 -67.74315 23340 ft 427 kts 179°
2026-04-21 21:17 -53.82445 -67.73882 22970 ft 418 kts 185°
2026-04-21 21:17 -53.85331 -67.73607 22531 ft 414 kts 185°
2026-04-21 21:17 -53.88194 -67.73354 22142 ft 410 kts 185°
2026-04-21 21:18 -53.91039 -67.73094 21739 ft 406 kts 185°
2026-04-21 21:18 -53.93842 -67.72825 21349 ft 402 kts 185°
2026-04-21 21:18 -53.96630 -67.72544 20968 ft 399 kts 185°
2026-04-21 21:18 -53.99385 -67.72259 20570 ft 396 kts 185°
2026-04-21 21:19 -54.02137 -67.71969 20190 ft 393 kts 184°
2026-04-21 21:19 -54.04832 -67.71682 19822 ft 391 kts 184°
2026-04-21 21:19 -54.07537 -67.71393 19440 ft 388 kts 184°
2026-04-21 21:19 -54.10226 -67.71104 19068 ft 386 kts 184°
2026-04-21 21:20 -54.12899 -67.70818 18699 ft 384 kts 184°
2026-04-21 21:20 -54.15557 -67.70532 18334 ft 381 kts 184°
2026-04-21 21:20 -54.18204 -67.70248 17981 ft 379 kts 184°
2026-04-21 21:20 -54.20827 -67.69965 17590 ft 377 kts 184°
2026-04-21 21:21 -54.23438 -67.69684 17204 ft 375 kts 184°
2026-04-21 21:21 -54.26034 -67.69406 16855 ft 373 kts 184°
2026-04-21 21:21 -54.28619 -67.69127 16472 ft 371 kts 184°
2026-04-21 21:21 -54.31184 -67.68848 16100 ft 368 kts 184°
2026-04-21 21:22 -54.33736 -67.68570 15748 ft 365 kts 183°
2026-04-21 21:22 -54.36259 -67.68295 15402 ft 362 kts 183°
2026-04-21 21:22 -54.38765 -67.68023 15046 ft 359 kts 183°
2026-04-21 21:22 -54.41256 -67.67746 14709 ft 356 kts 182°
2026-04-21 21:23 -54.43722 -67.67476 14350 ft 354 kts 182°
2026-04-21 21:23 -54.46167 -67.67216 14007 ft 351 kts 182°
2026-04-21 21:23 -54.48597 -67.66953 13665 ft 349 kts 181°
2026-04-21 21:23 -54.51031 -67.66678 13171 ft 350 kts 180°
2026-04-21 21:24 -54.53464 -67.66410 12551 ft 351 kts 180°
2026-04-21 21:24 -54.55866 -67.66147 11958 ft 350 kts 180°
2026-04-21 21:24 -54.58296 -67.65877 11362 ft 350 kts 180°
2026-04-21 21:24 -54.60725 -67.65605 10776 ft 350 kts 180°
2026-04-21 21:25 -54.63152 -67.65333 10196 ft 349 kts 180°
2026-04-21 21:25 -54.65567 -67.65062 9620 ft 347 kts 180°
2026-04-21 21:25 -54.67969 -67.64790 9260 ft 337 kts 180°
2026-04-21 21:25 -54.70232 -67.64528 9211 ft 317 kts 180°
2026-04-21 21:26 -54.72382 -67.64283 9040 ft 303 kts 180°
2026-04-21 21:26 -54.74480 -67.64049 8672 ft 300 kts 179°
2026-04-21 21:26 -54.76550 -67.63799 8337 ft 296 kts 181°
2026-04-21 21:26 -54.78553 -67.63828 8110 ft 275 kts 200°
2026-04-21 21:27 -54.80195 -67.65039 8078 ft 244 kts 221°
2026-04-21 21:27 -54.81408 -67.66849 7923 ft 216 kts 250°
2026-04-21 21:27 -54.81846 -67.69106 7766 ft 186 kts 271°
2026-04-21 21:27 -54.81961 -67.71219 7551 ft 167 kts 275°
2026-04-21 21:28 -54.82067 -67.73210 7107 ft 166 kts 275°
2026-04-21 21:28 -54.82141 -67.75198 6642 ft 165 kts 276°
2026-04-21 21:28 -54.82352 -67.79191 5899 ft 163 kts 273°
2026-04-21 21:29 -54.82499 -67.81148 5652 ft 163 kts 275°
2026-04-21 21:29 -54.82654 -67.83028 5425 ft 159 kts 268°
2026-04-21 21:29 -54.82751 -67.85036 5508 ft 173 kts 278°
2026-04-21 21:29 -54.82784 -67.87118 5434 ft 175 kts 278°
2026-04-21 21:30 -54.82927 -67.89245 5489 ft 178 kts 273°
2026-04-21 21:30 -54.83079 -67.91385 5099 ft 181 kts 271°
2026-04-21 21:30 -54.83296 -67.93605 4590 ft 189 kts 268°
2026-04-21 21:30 -54.83549 -67.95831 4124 ft 184 kts 268°
2026-04-21 21:31 -54.83678 -67.97944 3898 ft 169 kts 276°
2026-04-21 21:31 -54.83681 -67.99943 3639 ft 161 kts 279°
2026-04-21 21:31 -54.83616 -68.01802 3418 ft 151 kts 284°
2026-04-21 21:31 -54.83445 -68.03587 3212 ft 148 kts 289°
2026-04-21 21:32 -54.83303 -68.05338 2945 ft 152 kts 279°
2026-04-21 21:32 -54.83340 -68.07206 2623 ft 153 kts 270°
2026-04-21 21:32 -54.83474 -68.09003 2492 ft 143 kts 268°
2026-04-21 21:32 -54.83552 -68.10642 2484 ft 137 kts 269°
2026-04-21 21:33 -54.83637 -68.12340 2203 ft 147 kts 268°
2026-04-21 21:33 -54.83751 -68.14143 1906 ft 150 kts 266°
2026-04-21 21:33 -54.83785 -68.15350 1694 ft 152 kts 268°
2026-04-21 21:33 -54.83826 -68.17183 1398 ft 151 kts 268°
2026-04-21 21:34 -54.83897 -68.18960 1192 ft 145 kts 266°
2026-04-21 21:34 -54.83996 -68.20711 932 ft 146 kts 267°
2026-04-21 21:34 -54.84054 -68.22427 723 ft 140 kts 269°
2026-04-21 21:34 -54.84119 -68.24122 482 ft 140 kts 267°
2026-04-21 21:35 -54.84177 -68.25751 339 ft 134 kts 267°
2026-04-21 21:35 -54.84264 -68.27329 153 ft 128 kts 268°
2026-04-21 21:35 -54.84306 -68.28789 82 ft 112 kts 266°
2026-04-21 21:35 -54.84345 -68.29921 82 ft 73 kts 266°
2026-04-21 21:36 -54.84369 -68.30517 85 ft 30 kts 265°
2026-04-21 21:36 -54.84380 -68.30820 91 ft 21 kts 266°
2026-04-21 21:36 -54.84316 -68.30960 85 ft 14 kts 353°
2026-04-21 21:36 -54.84292 -68.30963 86 ft 0 kts 355°
2026-04-21 21:38 -54.84291 -68.30963 86 ft 1 kts 355°
2026-04-21 21:38 -54.84276 -68.30966 85 ft 4 kts 355°
2026-04-21 21:38 -54.84239 -68.30971 83 ft 6 kts 355°
2026-04-21 21:38 -54.84200 -68.30976 83 ft 6 kts 356°
2026-04-21 21:39 -54.84162 -68.30981 83 ft 5 kts 355°
2026-04-21 21:39 -54.84124 -68.30987 86 ft 5 kts 354°
2026-04-21 21:39 -54.84090 -68.31006 82 ft 5 kts 313°
2026-04-21 21:39 -54.84089 -68.31072 82 ft 6 kts 264°
2026-04-21 21:40 -54.84093 -68.31138 83 ft 5 kts 265°
2026-04-21 21:40 -54.84096 -68.31203 85 ft 5 kts 267°
2026-04-21 21:40 -54.84084 -68.31262 83 ft 5 kts 316°
2026-04-21 21:40 -54.84049 -68.31264 83 ft 5 kts 15°
2026-04-21 21:41 -54.84030 -68.31253 84 ft 2 kts 19°
2026-04-21 21:41 -54.84028 -68.31252 85 ft 0 kts 19°